Weather in Pyryakh

Russia / Khanty-Mansi Autonomous Okrug — Yugra     61°24′03″N   69°12′58″E
temp.,
°C
wind,
m/s
gust,
m/s
humid.,
%
clouds,
%
prec.,
mm/h
press.,
hPa
HPBL,
m
21 april, wed
wed2123:00−2n310886 0.2 1023411
02:00−5nnw269559 0.0 1025138
05:00−6n259660 0.0 1028101
08:00−2ne24735 0.0 1030442
11:00+2ne12585 0.0 1032775
14:00+4ene01515 0.0 1033962
17:00+4se11535 0.0 1034746
20:00−2sse25815 0.0 1036102
22 april, thu
thu2223:00−2sse28825 0.0 1037145
02:00−2s27827 0.0 1037126
05:00−2s278160 0.0 1038126
08:00+2s4764100 0.0 1038338
11:00+6s575811 0.0 1038893
14:00+8s685628 0.0 10371251
17:00+8s596011 0.0 10361124
20:00+5s41271100 0.0 1036311
23 april, fri
fri2323:00+4s5157390 0.0 1035427
02:00+3s5147698 0.0 1034390
05:00+2s51476100 0.0 1034383
08:00+4s51272100 0.0 1034430
11:00+9ssw61059100 0.0 1033712
14:00+12ssw51055100 0.0 10321205
17:00+11ssw5958100 0.0 1032996
20:00+7w1178100 0.1 103210
24 april, sat
sat2423:00+7s2283100 0.1 103221
02:00+7s2591100 0.9 1031172
05:00+6ssw4990100 1.8 1030529
08:00+5s1295100 0.4 103093
11:00+6ssw1394100 0.8 1030178
14:00+6s1292100 0.3 1030126
17:00+7ene1183100 0.3 1029189
20:00+6ene2391100 0.0 102971
25 april, sun
sun2523:00+5ese2492100 0.0 1028104
02:00+5se2295100 0.7 102745
05:00+5sse269494 1.6 1027237
08:00+5se2591100 0.1 1026282
11:00+6sse3581100 0.1 1025853
14:00+9se4667100 0.3 10221186
17:00+10se3652100 0.3 10201525
20:00+8e2564100 0.0 1019109